www.pogodaiklimat.ru

Погода и климат >> Архив погоды >> Австралия >> Западная Австралия >> Марбл-бар


ПОГОДА в Марбл-баре

  • Прогноз погоды в Марбл-баре
  • Монитор погоды в Марбл-баре

АРХИВ ПОГОДЫ в Марбл-баре

Время (UTC), дата Ветер
(напр.,м/с)
 
Видим.   Явления Облачность Т
(С)
Тd
(С)
f
(%)
Тe
(С)
Тes
(С)
Комфортность P
(гПа)
Po
(гПа)
Тmin
(С)
Tmax
(С)
R
(мм)
R24
(мм)
S
(см)
07 19.04 З 3 н/о н/о +37.2 +13.3 24 +37 +37 очень
жарко
1007.6 987.1
09 19.04 З 3 н/о н/о +36.4 +13.2 25 +37 +37 очень
жарко
1007.8 987.3
10 19.04 З 2 н/о н/о +33.5 +14.0 31 +35 +35 душно 1008.4 987.9
12 19.04 З 3 н/о н/о +32.2 +13.4 32 +33 +33 жарко 1009.7 989.2
13 19.04 Ю 2 н/о н/о +30.3 +14.4 38 +32 +32 жарко 1010.2 989.7 +38.3
15 19.04 Ю 4 н/о н/о +30.5 +13.3 35 +32 +32 жарко 1010.6 990.1
16 19.04 Ю 2 н/о н/о +28.4 +13.9 41 +30 +30 жарко 1010.8 990.3
18 19.04 Ю 4 н/о н/о +28.2 +10.9 34 +29 +29 жарко 1010.9 990.4
19 19.04 Ю 4 н/о н/о +27.5 +8.4 30 +27 +27 жарко 1011.1 990.6
21 19.04 Ю 4 н/о н/о +26.6 +7.1 29 +26 +26 жарко 1011.7 991.2
22 19.04 Ю 4 н/о н/о +26.0 +7.6 31 +26 +26 жарко 1012.5 991.9
00 20.04 ЮВ 6 н/о н/о +26.8 +8.7 32 +27 +27 жарко 1013.9 993.3
01 20.04 ЮВ 6 н/о н/о +27.2 +10.0 34 +28 +28 жарко 1014.3 993.7 +25.6
03 20.04 Ю 7 н/о н/о +28.4 +9.6 31 +28 +28 жарко 1014.2 993.6
04 20.04 Ю 7 н/о н/о +30.0 +10.5 30 +30 +30 жарко 1013.3 992.7
06 20.04 Ю 6 н/о н/о +30.9 +9.7 27 +30 +30 жарко 1011.5 991.0
07 20.04 ЮВ 6 н/о н/о +31.4 +9.6 26 +31 +31 жарко 1011.3 990.8
09 20.04 ЮВ 5 н/о н/о +30.4 +9.3 27 +30 +30 жарко 1011.4 990.9
10 20.04 ЮВ 3 н/о н/о +28.6 +9.3 30 +29 +29 жарко 1012.2 991.6
12 20.04 ЮВ 4 н/о н/о +27.1 +9.0 32 +27 +27 жарко 1013.7 993.1
13 20.04 ЮВ 5 н/о н/о +26.8 +7.8 30 +27 +27 жарко 1014.1 993.5 +33.4
15 20.04 ЮВ 4 н/о н/о +25.3 +6.5 30 +25 +25 комфорт 1014.5 993.9
16 20.04 ЮВ 4 н/о н/о +24.6 +3.3 25 +24 +24 комфорт 1014.6 994.0
18 20.04 Ю 4 н/о н/о +23.0 +1.4 24 +22 +22 комфорт 1014.8 994.2
19 20.04 Ю 4 н/о н/о +22.0 +0.5 24 +21 +21 комфорт 1014.7 994.1
21 20.04 Ю 5 н/о н/о +20.4 -0.8 24 +20 +20 1015.2 994.6
22 20.04 ЮВ 5 н/о н/о +19.6 -0.9 25 +20 +20 1015.9 995.3
00 21.04 ЮВ 7 н/о н/о +21.4 -0.6 23 +21 +21 комфорт 1017.5 996.8
01 21.04 ЮВ 7 н/о н/о +22.7 -0.1 22 +22 +22 комфорт 1017.8 997.1 +19.1
03 21.04 ЮВ 7 н/о н/о +25.4 +0.8 20 +24 +24 комфорт 1016.6 996.0
04 21.04 ЮВ 7 н/о н/о +27.2 +2.3 20 +26 +26 жарко 1015.4 994.8
06 21.04 ЮВ 6 н/о н/о +28.7 +2.1 18 +27 +27 жарко 1013.7 993.1
07 21.04 ЮВ 6 н/о н/о +28.3 +0.9 17 +26 +26 жарко 1013.5 992.9
09 21.04 ЮВ 6 н/о н/о +27.8 -3.1 13 +25 +25 комфорт 1013.4 992.8
10 21.04 ЮВ 3 н/о н/о +25.8 -1.9 16 +24 +24 комфорт 1013.9 993.3
12 21.04 ЮВ 3 н/о н/о +23.4 -1.5 19 +22 +22 комфорт 1015.5 994.9
13 21.04 ЮВ 1 н/о н/о +21.6 +0.8 25 +21 +21 комфорт 1015.7 995.1 +30.0
15 21.04 ЮВ 5 н/о н/о +22.8 -3.5 17 +21 +21 комфорт 1015.7 995.1
16 21.04 ЮВ 4 н/о н/о +22.0 -3.4 18 +21 +21 комфорт 1015.9 995.3
18 21.04 ЮВ 4 н/о н/о +20.7 -3.7 19 +20 +20 1015.5 994.9
19 21.04 ЮВ 3 н/о н/о +19.0 -3.2 22 +19 +19 1015.3 994.7
21 21.04 ЮВ 3 н/о н/о +18.3 -3.2 23 +18 +18 1015.8 995.2
22 21.04 ЮВ 3 н/о н/о +18.3 -3.8 22 +18 +18 1016.1 995.5
00 22.04 ЮВ 4 н/о н/о +21.9 -2.0 20 +21 +21 комфорт 1016.7 996.1
01 22.04 ЮВ 6 н/о н/о +24.2 -0.9 19 +23 +23 комфорт 1016.6 996.0 +17.5
03 22.04 ЮВ 5 н/о н/о +28.0 +1.5 18 +26 +26 жарко 1015.3 994.7
04 22.04 ЮВ 5 н/о н/о +29.7 +2.1 17 +27 +27 жарко 1014.0 993.4
06 22.04 В 3 н/о н/о +32.9 +2.9 15 +30 +30 жарко 1012.5 991.9
07 22.04 Ю 3 н/о н/о +33.2 +2.1 14 +30 +30 жарко 1012.3 991.7
09 22.04 Ю 3 н/о н/о +31.8 +2.0 15 +29 +29 жарко 1012.8 992.2
10 22.04 Ю 2 н/о н/о +27.5 +6.3 26 +27 +27 жарко 1013.3 992.7
12 22.04 ЮВ 1 н/о н/о +24.3 +5.1 29 +24 +24 комфорт 1014.7 994.1
13 22.04 ЮВ 1 н/о н/о +22.9 +6.2 34 +23 +23 комфорт 1015.0 994.4 +33.6
15 22.04 штиль 0 н/о н/о +21.3 +7.2 40 +22 +22 комфорт 1014.9 994.3
16 22.04 ЮВ 4 н/о н/о +24.4 +4.2 27 +24 +24 комфорт 1014.5 993.9
18 22.04 ЮВ 3 н/о н/о +23.1 +4.1 29 +23 +23 комфорт 1014.2 993.6
19 22.04 Ю 2 н/о н/о +22.5 +3.6 29 +22 +22 комфорт 1014.3 993.7
21 22.04 Ю 2 н/о н/о +21.7 +3.4 30 +22 +22 комфорт 1014.4 993.8
22 22.04 Ю 1 н/о н/о +19.8 +4.7 37 +21 +21 комфорт 1015.0 994.4
00 23.04 ЮВ 4 н/о н/о +24.7 +5.0 28 +24 +24 комфорт 1015.7 995.1
01 23.04 ЮВ 5 н/о н/о +26.4 +5.4 26 +26 +26 жарко 1015.9 995.3 +19.7
03 23.04 В 4 н/о н/о +29.6 +6.3 23 +28 +28 жарко 1015.1 994.5
04 23.04 ЮВ 3 н/о н/о +30.9 +7.4 23 +30 +30 жарко 1014.0 993.4
06 23.04 ЮВ 3 н/о н/о +34.0 +7.1 19 +32 +32 жарко 1012.6 992.0
07 23.04 ЮВ 2 н/о н/о +34.3 +6.6 18 +32 +32 жарко 1012.4 991.8
09 23.04 ЮВ 2 н/о н/о +32.4 +8.0 22 +31 +31 жарко 1012.9 992.3
10 23.04 Ю 2 н/о н/о +28.8 +11.8 35 +30 +30 жарко 1013.6 993.0
12 23.04 Ю 2 н/о н/о +26.9 +11.8 39 +28 +28 жарко 1014.4 993.8
13 23.04 штиль 0 н/о н/о +26.1 +10.7 38 +27 +27 жарко 1014.9 994.3 +35.1
15 23.04 штиль 0 н/о н/о +23.1 +12.4 51 +26 +26 жарко 1014.9 994.3
16 23.04 штиль 0 н/о н/о +22.1 +12.9 56 +25 +25 комфорт 1014.8 994.2
18 23.04 ЮВ 1 н/о н/о +21.6 +11.0 51 +23 +23 комфорт 1014.8 994.2
19 23.04 Ю 1 н/о н/о +20.4 +11.6 57 +24 +24 комфорт 1014.7 994.1
21 23.04 Ю 1 н/о н/о +20.6 +9.2 48 +23 +23 комфорт 1015.3 994.7
22 23.04 Ю 1 н/о н/о +20.2 +7.2 43 +22 +22 комфорт 1015.7 995.1
00 24.04 ЮВ 4 н/о н/о +27.1 +4.8 24 +26 +26 жарко 1016.6 996.0
01 24.04 В 5 н/о н/о +29.5 +4.9 21 +28 +28 жарко 1017.0 996.3 +18.5
03 24.04 В 5 н/о н/о +33.0 +5.5 18 +31 +31 жарко 1016.1 995.5
04 24.04 В 5 н/о н/о +34.1 +5.6 17 +32 +32 жарко 1014.9 994.3
06 24.04 В 5 н/о н/о +35.7 +5.1 15 +33 +33 жарко 1013.2 992.6
07 24.04 ЮВ 4 н/о н/о +35.5 +4.9 15 +33 +33 жарко 1013.0 992.4
09 24.04 В 3 н/о н/о +33.9 +4.6 16 +31 +31 жарко 1013.2 992.6
10 24.04 В 1 н/о н/о +30.5 +7.0 23 +29 +29 жарко 1013.7 993.1
12 24.04 ЮВ 3 н/о н/о +27.1 +6.5 27 +26 +26 жарко 1014.8 994.2
13 24.04 ЮВ 3 н/о н/о +25.9 +7.0 30 +26 +26 жарко 1015.2 994.6 +36.2
15 24.04 ЮВ 4 н/о н/о +25.9 +1.9 21 +24 +24 комфорт 1015.1 994.5
16 24.04 ЮВ 5 н/о н/о +25.7 +0.4 19 +24 +24 комфорт 1015.1 994.5
18 24.04 ЮВ 5 н/о н/о +25.5 -1.3 17 +24 +24 комфорт 1014.5 993.9
19 24.04 ЮВ 4 н/о н/о +23.9 +0.3 21 +23 +23 комфорт 1014.3 993.7
21 24.04 Ю 2 н/о н/о +21.8 +1.5 26 +21 +21 комфорт 1014.7 994.1
22 24.04 Ю 2 н/о н/о +21.5 +2.2 28 +21 +21 комфорт 1015.0 994.4
00 25.04 ЮВ 5 н/о н/о +26.6 +3.8 23 +25 +25 комфорт 1015.9 995.3
01 25.04 ЮВ 7 н/о н/о +28.5 +4.1 21 +27 +27 жарко 1016.0 995.4 +20.7
03 25.04 В 7 н/о н/о +32.2 +4.9 18 +30 +30 жарко 1014.9 994.3
04 25.04 В 5 н/о н/о +34.0 +4.6 16 +31 +31 жарко 1013.6 993.0
06 25.04 ЮВ 4 н/о н/о +35.0 +1.4 12 +32 +32 жарко 1012.0 991.4
07 25.04 ЮВ 4 н/о н/о +34.7 +3.3 14 +32 +32 жарко 1011.6 991.1
09 25.04 ЮВ 5 н/о н/о +33.2 +2.1 14 +30 +30 жарко 1012.0 991.4
10 25.04 В 2 н/о н/о +29.9 +3.8 19 +28 +28 жарко 1012.7 992.1
12 25.04 ЮВ 2 н/о н/о +25.6 +6.3 29 +25 +25 комфорт 1014.2 993.6
13 25.04 ЮВ 4 н/о н/о +26.4 +4.8 25 +26 +26 жарко 1014.8 994.2 +35.3
15 25.04 ЮВ 5 н/о н/о +26.5 +3.1 22 +25 +25 комфорт 1014.5 993.9
16 25.04 ЮВ 6 н/о н/о +26.5 +3.1 22 +25 +25 комфорт 1014.4 993.8
18 25.04 ЮВ 4 н/о н/о +24.3 +3.0 25 +24 +24 комфорт 1014.2 993.6
19 25.04 ЮВ 4 н/о н/о +24.2 +3.5 26 +24 +24 комфорт 1014.3 993.7
21 25.04 ЮВ 3 н/о н/о +23.4 +3.9 28 +23 +23 комфорт 1014.9 994.3
22 25.04 Ю 2 н/о н/о +21.6 +4.2 32 +22 +22 комфорт 1015.6 995.0
00 26.04 ЮВ 5 н/о н/о +25.8 +5.4 27 +25 +25 комфорт 1016.3 995.7
01 26.04 В 5 н/о н/о +28.2 +3.8 21 +27 +27 жарко 1016.9 996.2 +20.7
03 26.04 В 6 н/о н/о +30.6 +3.6 18 +28 +28 жарко 1015.6 995.0
04 26.04 В 6 н/о н/о +31.3 +2.5 16 +29 +29 жарко 1014.3 993.7
06 26.04 ЮВ 6 н/о н/о +32.5 +1.6 14 +29 +29 жарко 1012.4 991.8
07 26.04 ЮВ 7 н/о н/о +32.5 +0.6 13 +29 +29 жарко 1012.1 991.5

 

Местоположение метеостанции Марбл-бар (Западная Австралия, Австралия): широта -21.18 долгота 119.75 высота над уровнем моря 183 м.

В архиве по умолчанию представлена погода в Марбл-баре за последнюю неделю. Архивные данные за месяц целиком и за предыдущие месяцы, начиная с января 2011 года, Вы можете получить, выбрав интересующий диапазон дат из раскрывающегося списка и нажав кнопку "Ввод!".


*Определитесь, кто Вы:
робот инопланетянин человек

Внимание! Время в таблицах - всемирное. Для получения местного времени необходимо прибавить поправку, которая равна 8 ч.

Смотрите также архив погоды в соседних городах и на ближайших метеорологических станциях:

Погода в Порт-Хедленде Apardoo (Западная Австралия, Австралия) (148 км)
Погода в Мандоре (Западная Австралия, Австралия) (198 км)
Погода в Ньюмане (Западная Австралия, Австралия) (248 км)
Погода в Телфере (Западная Австралия, Австралия) (261 км)
Погода в Роборн аэропорту (Западная Австралия, Австралия) (274 км)
Погода в Параберду (Западная Австралия, Австралия) (302 км)
Погода в Каррате (Западная Австралия, Австралия) (314 км)
Погода в Марди (Западная Австралия, Австралия) (392 км)
Погода в Роули Шоалс (Западная Австралия, Австралия) (415 км)
Погода на Острове Варанас (Западная Австралия, Австралия) (438 км)

Пояснения к столбцам:

Ветер - указаны скорость ветра в м/с - средняя за 10 мин, порывы в срок и между сроками (в фигурных скобках) и направление, откуда дует ветер: С - северный, СВ - северо-восточный, В - восточный, ЮВ - юго-восточный, Ю - южный, ЮЗ - юго-западный, З - западный, СЗ - северо-западный.
Видимость - горизонтальная дальность видимости в метрах или километрах. При видимости от 1 до 10 км при отсутствии осадков обычно наблюдается дымка, при ухудшении видимости до 1 км и менее - туман. В сухую погоду видимость может ухудшаться дымом, пылью или мглою.
Явления - указаны атмосферные явления, наблюдавшиеся в срок или в последний час перед сроком; фигурными скобками обозначены явления, наблюдавшиеся между сроками (за 1-3 часа до срока); квадратными скобками обозначены град или гололедные отложения с указанием их диаметра в мм.
Облачность - указаны через наклонную черту общая и нижняя облачность в баллах и высота нижней границы облаков в метрах; квадратными скобками обозначены формы облаков: Ci - перистые, Cs - перисто-слоистые, Cc - перисто-кучевые, Ac - высококучевые, As - высокослоистые, Sc - слоисто-кучевые, Ns - слоисто-дождевые, Cu - кучевые, Cb - кучево-дождевые. Подробнее классификацию облаков см. в Атласе облаков (PDF).
T - Температура воздуха - температура, измеренная на высоте 2 м над землей.
Td - Температура точки росы - температура, при понижении до которой содержащийся в воздухе водяной пар достигнет насыщения.
f - Относительная влажность воздуха - влажноcть воздуха, измеренная на высоте 2 м над землей.
Te - Эффективная температура - температура, которую ощущает одетый по сезону человек в тени. Характеристика душности погоды. При расчете учитывается влияние влажности воздуха и скорости ветра на теплоощущения человека.
Tes - Эффективная температура на солнце - температура, которую ощущает человек, с поправкой на солнечный нагрев. Характеристика знойности погоды. Зависит от высоты солнца над горизонтом, облачности и скорости ветра. Ночью, в пасмурную погоду, а также при ветре 12 м/с и более поправка равна нулю.
P - Атмосферное давление - приведенное к уровню моря атмосферное давление.
Po - Атмосферное давление - измеренное на уровне метеостанции атмосферное давление.
Tmin - Минимальная температура - минимум температуры воздуха на высоте 2 м над землей.
Tmax - Максимальная температура - максимум температуры воздуха на высоте 2 м над землей.
R - Количество осадков - Количество выпавших осадков за период времени, мм. При наведении курсора мыши на число - период времени, за который выпало указанное количество осадков.
R24 - Количество осадков - Количество выпавших осадков за 24 часа, мм.
S - Снежный покров - Высота снежного покрова, см. При наведении курсора мыши на число - состояние снежного покрова и степень покрытия местности в баллах.